Temperature
23 23 22 22 21 20 22 23 24 23 23 23 23 22 21 21 20 18 19 19 19 19 19 19 19 19 19 19 19 18 18 18 18 18 19 18 18 18 18 18 18 18 18 18 18 18 18 18 18
24 23 22 22 21 21 22 23 23 24 23 23 22 22 21 20 19 19 19 19 19 19 19 19 19 19 19 19 19 19 18 18 18 18 18 18 18 18 18 18 18 18 18 18 18 18 18 18 18
23 23 22 20 21 21 23 24 24 24 24 23 23 22 21 20 19 19 19 19 19 19 19 19 19 19 19 19 19 19 19 18 18 18 18 18 18 18 18 18 18 18 18 18 18 18 18 18 18
24 23 22 21 22 23 24 24 24 24 24 23 22 21 21 20 20 20 19 20 20 19 19 19 19 19 19 19 19 19 19 18 18 18 18 18 18 18 18 18 18 18 18 18 18 18 18 18 18
24 23 21 22 23 25 25 25 25 24 24 22 22 21 20 20 20 20 20 20 20 19 19 19 19 19 19 19 19 19 19 19 19 18 18 18 18 18 18 18 18 18 18 18 18 19 18 18 18
24 22 22 22 24 25 26 25 24 24 23 22 22 21 20 20 20 20 20 20 20 20 19 19 19 19 19 19 19 19 19 19 19 18 18 19 19 18 18 18 18 18 18 19 18 18 18 18 18
24 22 22 24 24 25 26 25 25 24 23 23 22 21 20 20 20 20 20 20 20 20 20 19 19 19 19 19 19 19 19 19 19 19 19 19 19 18 18 18 18 19 19 19 18 18 18 18 18
25 22 23 24 24 25 26 26 25 24 24 23 22 21 20 20 20 20 20 20 20 20 20 19 19 19 19 19 19 19 19 19 19 19 19 19 18 18 18 18 18 19 19 19 19 18 18 18 18
26 22 23 24 25 25 26 25 25 24 23 23 23 22 21 21 20 20 20 20 20 20 19 19 19 19 19 19 19 19 19 19 19 19 19 19 18 18 18 18 18 18 19 19 19 18 18 18 18
26 23 25 26 26 25 26 25 25 24 23 23 22 22 21 21 21 20 20 20 20 20 19 19 19 19 19 19 19 19 19 19 19 19 19 19 18 18 18 18 18 18 18 18 18 18 18 18 18
26 25 27 27 27 27 26 26 25 24 22 22 22 21 21 21 21 21 20 20 20 20 19 19 19 19 19 19 19 19 19 19 19 19 19 19 19 19 18 18 18 18 18 18 18 18 18 18 18
27 28 28 27 28 27 26 26 25 24 23 23 23 22 22 21 21 21 21 20 20 20 19 19 19 19 19 19 19 19 19 19 19 19 19 19 19 18 18 18 18 18 18 18 18 18 18 18 18
28 28 28 28 28 27 26 26 25 24 24 23 23 22 22 22 21 21 21 21 20 20 20 19 19 19 19 19 19 19 19 19 19 19 19 19 19 18 18 18 18 18 18 18 18 18 18 18 18
28 28 28 28 27 27 26 25 25 24 24 23 23 22 22 22 21 21 21 21 20 20 20 19 19 19 19 19 19 19 19 19 19 19 19 19 19 19 19 19 18 18 18 18 18 18 18 18 18
28 27 27 27 27 27 26 25 24 24 24 23 23 22 22 22 22 21 21 21 21 20 20 20 19 19 19 19 19 19 19 19 19 19 19 19 19 19 19 19 18 18 18 18 18 18 18 18 18
27 25 25 26 26 27 25 23 24 24 24 23 23 23 22 22 22 22 21 21 21 20 20 20 20 19 19 19 19 19 19 19 19 19 19 19 19 19 19 19 18 18 18 18 18 18 18 18 18
25 24 25 26 27 27 25 24 25 25 24 23 23 23 22 22 22 22 21 21 21 20 20 20 20 19 19 19 19 19 19 19 19 19 19 19 19 19 19 19 19 18 18 18 18 18 18 18 18
25 25 26 26 27 27 25 24 25 25 24 24 23 23 22 22 22 22 21 21 21 20 20 20 20 19 19 19 19 19 19 19 19 19 19 19 19 19 19 19 19 18 18 18 18 18 18 18 18
26 26 26 26 27 26 25 24 24 25 25 24 23 23 23 22 22 22 22 21 21 20 20 20 20 20 19 19 19 19 19 19 19 19 19 19 19 19 19 19 19 19 18 18 18 18 18 18 18
27 26 26 27 27 26 25 25 25 25 24 24 23 23 23 23 22 22 22 21 21 21 20 20 20 20 19 19 19 19 19 19 19 19 19 19 19 18 19 19 19 19 18 18 18 18 18 18 18
27 26 26 26 27 26 25 24 24 24 25 24 24 24 23 23 22 22 22 22 21 21 21 20 20 20 19 19 19 19 19 19 19 19 19 19 18 18 18 18 19 19 18 18 18 18 18 18 18
27 28 28 27 25 24 24 22 23 23 23 24 24 24 23 23 23 22 22 22 21 21 21 20 20 20 20 19 19 19 19 19 19 19 18 18 18 19 18 18 18 18 18 18 18 18 18 18 18
27 28 28 27 25 23 24 22 22 23 23 23 24 24 24 24 23 23 22 22 22 21 21 21 20 20 20 20 19 19 19 19 19 19 19 18 18 19 18 18 18 18 18 18 18 18 18 18 18
29 27 26 24 23 23 24 23 23 22 23 24 24 24 24 24 23 23 23 22 22 21 21 21 20 20 20 20 19 19 19 19 19 19 19 19 18 18 18 18 18 18 18 18 18 18 18 18 18
27 24 23 23 22 23 23 24 23 24 25 25 25 25 25 24 24 23 23 22 22 21 21 21 21 20 20 20 19 19 19 19 19 19 19 19 19 19 18 18 18 18 18 18 18 18 18 18 18
26 24 23 23 23 23 24 24 24 25 26 26 26 25 25 24 24 23 23 23 22 22 21 21 21 21 20 20 20 19 19 19 19 19 19 19 19 19 19 18 18 18 18 18 18 18 18 18 17
26 24 23 22 23 23 23 24 25 26 25 25 26 25 24 24 24 24 24 23 23 22 22 22 21 21 20 20 20 20 19 19 19 19 19 19 19 19 19 18 18 18 18 18 18 18 18 17 17
26 25 22 22 22 22 23 24 23 24 25 25 24 25 25 24 24 24 24 23 23 23 22 22 21 21 21 20 20 20 20 19 19 19 19 19 19 19 19 18 18 18 18 18 18 18 18 17 17
26 25 22 20 21 22 22 23 25 24 24 24 25 25 25 25 25 24 24 23 23 23 22 22 21 21 21 21 20 20 20 20 20 19 19 19 19 19 18 18 18 18 18 18 18 18 17 17 17
26 25 22 22 22 21 21 23 25 25 25 25 25 26 26 25 25 25 24 23 23 22 22 22 21 21 21 21 20 20 20 20 20 19 19 19 19 19 19 18 18 18 18 18 17 17 17 17 17
Wind_Speed
10 8 4 1 4 5 5 4 5 7 6 8 10 10 9 7 5 6 2 6 6 5 6 9 11 13 13 13 14 15 16 16 17 17 17 17 17 17 17 17 16 16 15 15 14 14 14 15 15
7 4 1 2 5 5 4 5 9 10 11 11 12 12 10 8 8 8 4 6 7 7 7 9 11 13 14 14 14 15 15 16 16 16 16 16 16 16 16 16 16 15 14 14 13 13 13 14 13
5 2 2 3 3 5 5 6 10 12 11 9 7 7 6 6 7 5 6 9 7 7 8 10 13 14 14 14 14 15 15 15 15 15 16 16 16 15 15 15 15 15 14 13 13 13 12 12 12
3 2 3 4 5 4 7 8 11 14 11 9 9 7 5 6 5 8 11 10 9 6 8 11 14 14 13 14 14 14 14 14 14 14 15 16 16 15 15 15 14 14 13 12 11 11 11 11 11
2 3 4 4 5 5 7 10 13 12 8 11 12 9 6 6 13 13 12 11 10 7 7 10 13 13 13 13 13 13 13 13 13 14 14 15 15 15 14 14 13 13 13 12 11 10 11 11 10
2 4 4 4 5 6 8 13 14 16 15 13 11 9 5 7 12 12 11 10 10 8 7 9 12 12 12 12 12 11 12 12 13 13 14 14 14 13 13 12 12 12 11 11 10 9 10 9 8
3 4 2 5 7 8 10 11 12 14 13 10 10 8 5 7 10 11 10 10 9 8 7 6 9 10 11 11 11 11 11 12 12 13 14 14 14 13 12 11 11 11 10 10 9 8 8 7 6
4 4 2 5 8 8 9 8 10 13 11 11 8 7 7 7 10 11 10 9 8 7 6 5 6 7 8 9 10 10 11 11 12 13 13 13 13 12 11 10 10 10 9 9 8 7 6 5 5
4 4 3 6 8 8 10 13 10 11 13 8 7 10 11 13 12 11 10 8 7 7 4 4 4 5 6 7 9 9 9 10 11 11 12 11 9 8 8 9 9 9 8 8 7 6 5 4 2
5 4 5 6 9 10 12 13 9 10 14 13 13 12 12 12 12 11 10 9 7 6 5 4 4 5 5 6 7 6 7 7 7 7 8 8 7 7 7 8 8 8 7 7 6 4 3 2 1
5 6 6 8 9 12 12 11 8 12 11 14 16 14 12 11 10 10 9 8 8 8 7 5 5 5 5 4 6 5 4 5 5 6 7 7 6 6 5 5 5 6 5 4 4 3 3 2 2
6 6 7 7 9 11 11 10 9 10 11 14 15 14 11 11 10 9 9 8 7 8 7 6 5 5 5 5 4 4 4 3 3 5 6 6 4 4 4 4 4 4 4 3 2 2 2 2 3
7 6 7 9 10 11 12 12 11 12 15 15 15 13 11 11 9 8 8 8 8 7 6 6 6 6 5 5 3 4 4 4 5 4 5 6 4 4 3 3 3 4 4 3 3 3 2 1 2
5 8 8 9 10 11 14 11 9 12 15 15 14 11 11 11 10 8 7 7 7 7 7 5 6 6 6 5 4 4 4 5 5 4 5 6 5 4 3 3 2 3 4 4 4 3 2 2 2
6 8 6 6 7 7 12 8 10 15 15 15 13 12 11 10 10 10 9 8 9 8 7 6 6 6 6 5 4 4 4 5 4 4 5 5 5 4 4 3 2 2 4 3 3 2 2 2 1
4 5 3 2 6 6 9 8 10 13 15 14 13 12 11 9 10 10 10 8 9 9 7 6 7 6 5 4 4 3 4 4 4 4 4 4 4 4 3 2 1 2 3 2 2 1 1 1 1
4 2 3 3 6 7 6 8 11 12 15 13 12 12 11 9 9 9 10 9 9 9 8 6 6 6 4 4 3 3 4 3 3 3 3 2 3 3 3 2 2 3 2 2 2 2 2 2 1
3 3 3 4 5 6 6 7 12 14 15 14 13 12 12 12 10 10 10 10 9 8 7 7 6 5 5 3 3 3 3 2 2 2 2 3 3 3 3 2 2 2 2 1 1 2 1 2 2
6 4 4 5 3 5 7 9 12 12 12 13 12 12 12 12 10 10 10 10 9 8 7 7 6 5 4 3 3 3 2 1 1 1 2 3 4 4 3 2 2 2 2 2 2 2 2 1 2
5 5 5 3 3 5 7 7 10 13 14 15 15 15 14 12 10 10 10 10 10 9 8 7 6 5 5 3 3 2 2 1 1 1 1 2 3 3 3 3 2 2 3 2 2 2 2 1 2
8 9 8 5 2 4 6 1 4 7 8 9 11 13 15 17 16 14 12 10 10 10 9 9 7 6 5 4 3 3 2 2 2 1 1 1 2 3 3 3 3 3 3 2 2 2 3 1 0
7 10 9 7 5 2 5 4 7 8 7 9 10 11 14 15 14 14 13 12 12 11 9 8 8 7 6 5 5 5 4 2 2 2 1 0 1 2 3 3 3 3 2 2 2 2 1 3 1
7 5 6 6 6 2 2 4 6 5 8 11 12 14 15 16 17 16 15 14 13 11 10 9 8 7 6 6 6 5 3 2 1 1 2 1 1 1 2 3 2 2 2 2 2 2 2 2 2
3 3 5 5 5 1 6 5 6 8 14 14 13 14 15 16 17 16 14 12 11 10 10 9 8 6 6 6 5 5 5 4 3 2 2 1 0 1 1 2 2 2 2 2 2 2 2 2 2
4 5 3 4 3 5 5 3 8 11 13 15 15 15 15 16 17 16 15 14 13 12 11 10 10 7 6 6 6 5 5 5 5 4 3 2 1 0 1 1 1 1 2 2 2 2 2 1 2
4 9 8 5 5 5 2 4 8 8 10 12 13 14 14 15 16 17 17 16 15 15 13 12 11 9 8 7 6 5 5 4 3 4 3 3 2 2 2 2 2 2 2 3 3 3 2 2 2
4 4 9 7 3 1 4 5 5 3 7 9 11 12 15 16 17 17 16 16 15 15 14 14 13 10 9 8 7 5 5 4 4 3 3 2 2 2 2 2 3 2 3 3 3 2 2 2 2
7 7 5 5 4 2 4 4 5 6 9 10 11 13 14 15 15 16 15 15 14 14 13 13 12 11 9 9 7 6 5 5 5 4 4 3 2 2 2 3 3 3 2 3 3 2 2 2 1
2 3 5 5 6 6 4 7 7 10 10 11 12 14 16 16 16 16 14 14 14 13 12 12 11 10 9 9 8 7 6 5 5 4 4 3 3 3 3 3 3 3 2 2 3 2 2 2 1
6 6 6 5 4 5 4 8 6 8 9 9 10 12 15 16 15 15 15 14 14 14 13 12 11 11 10 10 8 7 6 6 5 5 4 4 4 4 4 4 3 3 3 3 3 3 2 2 2
Wind_Direction
165 155 161 141 47 59 81 92 95 80 66 67 75 79 79 68 90 120 154 131 121 116 116 108 106 107 109 109 111 111 110 111 112 113 115 117 118 119 121 121 123 124 124 123 124 125 126 127 128
159 163 138 58 74 81 84 102 89 95 112 100 79 80 74 71 88 114 127 135 123 117 115 112 110 112 111 110 113 114 114 114 114 115 118 119 119 120 122 122 124 124 123 124 126 127 130 131 131
157 154 83 64 92 122 125 115 104 102 103 97 88 66 67 96 106 123 144 137 119 111 115 117 111 112 112 112 112 114 116 116 116 118 120 121 121 121 122 122 123 123 122 124 128 132 133 133 133
143 78 44 74 105 132 131 126 111 103 87 81 91 74 65 91 109 129 136 129 116 107 115 117 113 112 112 114 115 116 118 120 121 122 122 124 123 121 121 122 123 122 122 123 127 133 138 136 135
107 77 53 73 100 113 121 114 110 103 90 92 92 97 86 81 112 126 130 125 122 116 119 120 118 117 116 116 117 118 121 125 125 126 127 127 126 124 123 122 124 123 122 120 122 130 139 137 136
68 65 72 90 96 98 108 111 108 102 106 104 100 104 102 115 122 130 130 128 129 128 126 128 123 122 121 121 122 125 128 128 131 132 133 131 128 126 126 125 124 124 122 119 120 125 130 133 134
115 94 120 119 108 105 111 113 111 116 114 111 116 104 120 129 133 134 130 126 126 127 125 128 130 129 127 127 128 128 127 129 134 137 138 137 134 131 130 127 126 126 125 126 127 126 130 137 139
148 107 100 109 110 109 110 102 111 117 110 120 119 116 138 152 133 126 124 122 121 122 125 128 131 130 132 133 133 135 133 132 136 139 141 140 140 140 136 135 137 137 137 138 140 141 142 140 140
124 89 134 141 125 125 112 101 96 99 111 114 102 121 143 138 126 120 118 113 119 121 126 130 127 133 137 141 138 141 136 134 137 142 143 141 143 148 150 149 151 152 152 153 155 156 156 154 149
122 133 172 158 137 133 125 119 116 106 104 104 107 116 127 128 128 129 131 134 137 139 145 144 140 142 150 143 135 141 139 141 143 148 149 151 155 162 164 169 166 166 168 170 171 174 179 187 217
134 151 145 127 131 130 125 122 113 116 118 133 136 138 136 130 130 134 136 143 147 152 152 153 149 147 146 132 141 150 150 147 153 161 163 161 161 165 168 171 180 182 181 188 189 202 212 212 222
137 143 132 133 129 122 125 121 113 122 138 143 139 139 135 133 134 136 136 138 133 139 146 144 141 135 136 137 142 152 155 151 162 177 169 161 152 150 158 164 175 180 186 180 182 192 201 212 221
120 119 117 127 116 113 114 116 116 124 132 136 135 135 138 137 140 140 137 130 125 123 125 126 128 125 126 122 132 138 148 152 162 170 167 162 147 147 156 161 174 187 192 187 169 176 181 194 216
132 123 121 126 116 122 122 122 113 137 138 137 137 140 143 143 145 136 130 128 127 127 130 127 118 117 115 111 115 124 142 147 146 147 152 154 153 149 149 154 164 176 186 185 174 178 173 185 177
97 101 104 127 120 129 116 109 138 151 144 142 145 146 144 147 142 144 147 144 140 138 138 139 127 115 112 111 111 119 136 139 134 142 147 145 144 143 141 142 152 168 171 170 166 162 152 147 133
69 81 96 212 140 149 117 148 163 157 148 150 153 151 148 152 151 150 148 145 143 141 143 150 134 123 120 113 105 104 119 126 131 145 148 145 143 142 126 128 158 165 151 148 150 143 121 107 111
42 110 183 220 180 156 133 162 173 165 154 158 161 159 157 157 155 156 154 152 149 149 146 141 133 134 128 113 103 99 105 114 130 132 136 149 149 150 136 143 152 145 133 137 159 144 142 143 141
203 195 202 217 201 151 144 166 168 172 165 164 166 166 163 165 169 165 160 155 151 148 143 141 138 137 128 112 93 86 83 93 115 130 142 148 153 140 138 137 130 131 123 114 111 127 123 157 160
188 200 226 239 195 142 151 160 173 174 171 170 171 173 172 174 173 163 159 156 151 148 144 146 145 146 129 114 116 114 111 116 112 152 159 145 145 139 117 119 110 112 126 144 139 118 99 88 114
194 213 227 241 176 142 151 171 184 180 183 182 179 179 178 171 166 166 162 159 158 159 155 150 154 151 145 142 145 148 144 152 155 142 121 137 134 138 126 119 118 121 123 110 109 104 104 103 116
214 207 205 186 152 97 120 120 214 204 189 184 186 182 178 175 173 172 169 168 165 167 165 163 160 157 156 145 120 105 77 56 57 61 63 92 120 114 113 123 123 120 124 130 133 120 125 143 211
227 221 198 170 134 188 154 194 249 209 194 191 191 186 183 179 174 174 173 172 173 175 168 158 160 160 158 146 136 138 140 148 185 174 154 60 103 107 120 123 119 124 127 133 147 131 124 136 160
224 210 179 170 150 146 182 158 260 192 200 203 197 192 187 182 177 178 178 177 175 172 167 162 156 157 156 150 149 143 143 158 156 118 115 85 60 98 120 124 117 130 134 133 118 110 113 132 149
186 63 49 60 85 183 226 173 243 204 203 199 196 192 186 182 180 179 177 171 170 168 165 161 156 157 156 152 150 152 158 159 145 139 144 131 67 52 108 126 123 133 133 134 133 119 123 120 120
98 93 40 2 6 251 240 192 238 223 199 189 186 186 184 179 178 177 174 173 173 171 170 164 161 162 163 159 161 163 165 164 165 167 167 159 152 170 212 135 124 128 140 137 123 109 110 110 112
181 142 159 193 215 268 289 228 255 224 191 181 178 176 176 175 178 180 180 178 176 175 173 168 168 169 171 169 171 168 163 161 167 164 160 168 179 197 185 145 129 126 121 112 105 91 102 88 87
157 175 170 148 177 243 279 280 319 124 149 165 172 172 178 178 178 181 180 179 177 176 176 174 173 173 175 174 169 165 162 158 158 154 151 159 175 177 155 142 133 128 120 115 109 95 92 93 88
167 161 102 124 156 239 278 257 225 192 177 178 183 183 182 180 176 174 174 177 177 176 175 172 173 176 175 173 173 173 169 166 159 150 155 160 169 159 143 139 140 134 125 120 111 109 113 108 86
175 127 120 131 155 163 228 261 222 196 187 184 188 185 177 177 176 174 175 175 173 171 170 171 174 173 173 175 174 171 171 171 164 164 171 170 165 158 150 146 144 142 141 135 129 144 132 123 99
181 177 147 160 210 167 179 260 250 197 185 179 180 180 175 171 171 169 168 167 167 169 171 172 174 175 177 176 173 175 171 170 169 175 180 174 168 165 161 153 152 160 161 156 155 169 152 148 153
Height
1497 1497 1497 1498 1501 1509 1512 1505 1499 1497 1499 1499 1498 1499 1502 1506 1510 1518 1514 1512 1511 1510 1509 1509 1508 1507 1506 1506 1506 1507 1508 1509 1510 1511 1512 1513 1514 1516 1517 1518 1520 1522 1523 1525 1526 1528 1529 1531 1533
1497 1497 1499 1499 1508 1521 1516 1504 1501 1499 1501 1500 1501 1502 1504 1508 1510 1512 1513 1514 1513 1512 1511 1510 1509 1509 1508 1508 1509 1509 1510 1511 1512 1513 1514 1516 1517 1518 1519 1520 1522 1523 1525 1526 1527 1528 1530 1532 1534
1498 1498 1500 1502 1511 1517 1513 1502 1500 1501 1501 1500 1503 1505 1507 1511 1512 1513 1514 1515 1514 1514 1513 1512 1511 1511 1511 1511 1511 1512 1512 1513 1514 1515 1516 1518 1519 1520 1521 1522 1524 1525 1526 1527 1528 1529 1531 1533 1535
1499 1499 1502 1507 1512 1505 1502 1501 1500 1502 1503 1503 1504 1508 1512 1514 1514 1515 1516 1516 1516 1515 1515 1514 1513 1513 1513 1513 1514 1514 1515 1515 1516 1517 1518 1519 1521 1522 1523 1524 1525 1526 1527 1528 1528 1528 1529 1532 1535
1499 1501 1507 1512 1508 1501 1498 1499 1500 1502 1504 1507 1507 1512 1515 1517 1516 1517 1517 1518 1517 1517 1517 1516 1516 1515 1515 1515 1516 1516 1517 1517 1518 1519 1520 1522 1523 1524 1525 1526 1527 1528 1529 1529 1528 1527 1529 1532 1536
1501 1503 1515 1518 1508 1501 1500 1500 1501 1504 1508 1510 1511 1513 1518 1519 1518 1519 1519 1520 1520 1519 1519 1519 1518 1518 1518 1518 1518 1518 1518 1519 1519 1521 1522 1523 1525 1526 1527 1528 1529 1530 1531 1531 1531 1531 1531 1534 1537
1503 1507 1514 1512 1509 1505 1502 1501 1502 1505 1509 1511 1512 1515 1520 1521 1520 1521 1521 1522 1522 1522 1521 1521 1521 1521 1520 1520 1520 1520 1520 1520 1520 1521 1523 1525 1527 1528 1529 1530 1531 1532 1533 1533 1534 1535 1535 1537 1539
1501 1506 1511 1510 1509 1508 1503 1502 1504 1505 1509 1513 1513 1516 1520 1522 1522 1523 1523 1524 1524 1524 1524 1524 1523 1523 1523 1522 1522 1521 1521 1520 1520 1522 1524 1527 1529 1530 1532 1533 1533 1534 1535 1536 1537 1537 1539 1540 1541
1500 1510 1515 1509 1508 1507 1503 1504 1507 1508 1510 1514 1515 1516 1519 1522 1523 1524 1525 1525 1526 1526 1526 1526 1525 1525 1525 1525 1524 1524 1522 1522 1523 1524 1526 1529 1531 1532 1534 1535 1536 1536 1537 1538 1538 1539 1540 1541 1542
1499 1510 1507 1499 1499 1502 1503 1504 1507 1511 1513 1516 1518 1520 1521 1523 1524 1525 1525 1526 1526 1527 1527 1528 1527 1527 1527 1527 1527 1526 1526 1526 1526 1527 1529 1531 1532 1534 1536 1537 1537 1538 1539 1539 1540 1540 1541 1542 1543
1496 1501 1497 1497 1497 1499 1503 1506 1508 1511 1515 1516 1518 1520 1522 1524 1525 1526 1526 1527 1527 1528 1529 1529 1529 1529 1529 1529 1529 1529 1529 1529 1530 1531 1531 1533 1534 1536 1537 1538 1539 1540 1540 1541 1541 1541 1542 1543 1543
1494 1494 1495 1497 1498 1500 1503 1506 1510 1511 1515 1517 1518 1520 1523 1524 1526 1527 1527 1528 1529 1529 1530 1531 1531 1531 1531 1531 1531 1531 1532 1532 1532 1533 1534 1535 1536 1537 1538 1539 1540 1541 1541 1541 1542 1542 1542 1543 1543
1493 1495 1496 1497 1499 1501 1504 1507 1510 1514 1516 1518 1520 1522 1524 1526 1527 1528 1529 1529 1530 1530 1531 1532 1532 1532 1532 1533 1533 1533 1533 1534 1534 1535 1536 1537 1537 1538 1539 1540 1541 1541 1542 1542 1542 1542 1543 1543 1543
1494 1495 1497 1499 1500 1503 1506 1510 1512 1516 1517 1520 1522 1523 1525 1526 1527 1529 1529 1530 1530 1531 1532 1533 1533 1534 1534 1535 1535 1535 1535 1536 1536 1537 1537 1538 1539 1540 1540 1540 1541 1542 1542 1542 1543 1543 1543 1543 1543
1495 1498 1501 1501 1502 1506 1508 1515 1514 1516 1518 1520 1522 1524 1525 1527 1528 1529 1529 1530 1531 1532 1533 1534 1534 1535 1536 1536 1537 1537 1537 1537 1538 1538 1539 1540 1540 1540 1541 1541 1542 1542 1542 1543 1543 1543 1543 1543 1543
1498 1505 1513 1505 1503 1506 1512 1524 1516 1516 1517 1520 1522 1524 1525 1527 1528 1529 1530 1530 1531 1532 1533 1534 1535 1536 1537 1537 1538 1538 1539 1539 1539 1540 1540 1541 1541 1541 1542 1542 1542 1542 1542 1542 1543 1543 1543 1543 1543
1508 1516 1515 1508 1501 1504 1510 1519 1515 1515 1517 1519 1521 1523 1525 1526 1528 1529 1530 1530 1531 1532 1533 1534 1535 1536 1537 1538 1539 1539 1540 1540 1541 1541 1541 1541 1542 1542 1542 1542 1542 1542 1542 1542 1542 1542 1542 1542 1542
1516 1514 1512 1510 1502 1502 1508 1512 1511 1513 1515 1517 1520 1521 1523 1525 1526 1528 1529 1531 1532 1533 1534 1535 1535 1536 1537 1538 1539 1540 1540 1541 1541 1541 1541 1542 1542 1542 1542 1542 1542 1542 1542 1542 1542 1541 1541 1541 1541
1502 1507 1509 1504 1497 1503 1508 1511 1511 1511 1513 1515 1517 1519 1521 1523 1526 1527 1529 1530 1531 1533 1534 1534 1535 1536 1537 1538 1539 1540 1540 1541 1541 1542 1542 1542 1542 1543 1543 1542 1542 1542 1542 1541 1541 1540 1540 1540 1541
1498 1506 1507 1502 1496 1502 1509 1510 1508 1509 1509 1511 1513 1515 1518 1521 1524 1526 1528 1529 1530 1532 1533 1534 1535 1536 1538 1539 1539 1540 1541 1541 1542 1542 1542 1543 1543 1543 1543 1542 1542 1542 1541 1541 1541 1540 1540 1540 1540
1497 1503 1503 1504 1499 1502 1510 1518 1513 1508 1508 1511 1512 1513 1515 1518 1520 1523 1526 1528 1530 1531 1532 1533 1535 1536 1537 1539 1540 1540 1541 1542 1542 1542 1542 1543 1543 1543 1543 1542 1542 1541 1541 1541 1540 1540 1540 1539 1540
1499 1488 1491 1497 1510 1520 1515 1534 1518 1509 1508 1508 1509 1511 1513 1516 1518 1521 1523 1526 1528 1530 1531 1533 1534 1536 1537 1538 1539 1540 1540 1541 1542 1542 1543 1543 1543 1543 1542 1542 1542 1541 1541 1540 1540 1540 1540 1540 1539
1488 1482 1487 1493 1506 1518 1517 1528 1521 1509 1510 1506 1505 1507 1510 1512 1515 1518 1520 1523 1526 1528 1530 1532 1534 1535 1537 1538 1539 1540 1540 1541 1542 1542 1542 1542 1542 1542 1542 1541 1541 1541 1540 1540 1540 1539 1539 1539 1539
1478 1485 1491 1500 1511 1529 1518 1524 1523 1509 1501 1499 1500 1503 1505 1509 1512 1515 1518 1522 1524 1527 1529 1531 1533 1534 1536 1537 1538 1539 1540 1541 1541 1541 1542 1542 1542 1541 1541 1541 1540 1540 1539 1539 1539 1539 1539 1538 1538
1481 1502 1524 1529 1536 1532 1513 1516 1512 1491 1487 1489 1493 1497 1501 1505 1509 1512 1516 1519 1521 1524 1527 1529 1531 1533 1534 1536 1537 1538 1539 1540 1540 1541 1541 1541 1541 1541 1541 1540 1540 1539 1539 1539 1539 1539 1538 1538 1538
1484 1498 1525 1538 1540 1529 1513 1515 1497 1480 1480 1483 1488 1492 1497 1501 1505 1508 1512 1515 1518 1521 1524 1527 1529 1531 1533 1534 1536 1538 1539 1539 1540 1540 1540 1541 1541 1540 1540 1540 1540 1539 1539 1539 1539 1538 1538 1538 1538
1484 1493 1495 1515 1522 1528 1522 1505 1489 1478 1481 1483 1487 1491 1495 1497 1501 1504 1509 1512 1515 1518 1521 1524 1527 1529 1531 1533 1535 1536 1537 1538 1539 1539 1540 1540 1540 1540 1540 1540 1539 1539 1539 1539 1538 1538 1538 1538 1537
1472 1480 1499 1514 1530 1537 1524 1512 1504 1489 1484 1483 1485 1488 1491 1495 1498 1502 1506 1509 1513 1516 1519 1522 1525 1527 1529 1532 1533 1535 1536 1537 1538 1539 1539 1539 1540 1540 1539 1539 1539 1539 1539 1538 1538 1538 1537 1537 1537
1476 1483 1494 1509 1515 1529 1533 1516 1482 1481 1478 1479 1481 1483 1486 1491 1494 1498 1503 1507 1511 1514 1517 1520 1523 1525 1528 1530 1532 1533 1534 1536 1537 1537 1538 1538 1539 1539 1539 1539 1539 1539 1538 1538 1538 1537 1537 1537 1536
1468 1477 1490 1507 1513 1516 1521 1509 1470 1472 1473 1475 1478 1481 1483 1487 1491 1496 1500 1505 1509 1512 1515 1518 1521 1523 1525 1528 1530 1531 1533 1534 1535 1536 1537 1537 1538 1538 1538 1538 1538 1538 1538 1538 1537 1537 1537 1536 1536